Location: Newark
(7.0858°N, 171.3717°E)
Time: 20:03:19
(UTC+00:00)

Tiros 1 - Pass Details

Date: 27 November 2020
Orbit: 630 x 663 km, 48.4° (Epoch: 18 January)

Event Time Altitude Azimuth Distance (km) Brightness Sun altitude
Rises 01:04:01 0° 198° (SSW) 2,971 11.0 59.9°
Reaches altitude 10° 01:06:39 10° 186° (S) 2,064 10.4 59.7°
Maximum altitude 01:10:41 27° 128° (SE) 1,251 9.1 59.3°
Drops below altitude 10° 01:14:44 10° 70° (ENE) 2,070 9.6 58.9°
Sets 01:17:21 0° 58° (ENE) 2,982 10.3 58.7°
